Tracking 19817 objects as of 17-Aug-2019
HD Live streaming from Space Station
objects crossing your sky now

COSMOS 2251 DEB

Track COSMOS 2251 DEB now!
10-day predictions


NORAD ID: 35987
Int'l Code: 1993-036AWD
Perigee: 751.6 km
Apogee: 836.5 km
Inclination: 74.0 °
Period: 100.6 minutes
Semi major axis: 7165 km
RCS: 0.0082 m2 (small)
Launch date: June 16, 1993
Source: Commonwealth of Independent States (former USSR) (CIS)
Launch site: PLESETSK MISSILE AND SPACE COMPLEX (PKMTR)

Note: This is SATELLITE DEBRIS
aabbcc
Your satellite tracking list
Your tracking list is empty




NASA's NSSDC Master Catalog

Two Line Element Set (TLE):
1 35987U 93036AWD 19228.37045941  .00000285  00000-0  11513-3 0  9997
2 35987  74.0021 248.6997 0059225 196.8034 163.1156 14.31435575539050
Source of the keplerian elements: AFSPC